Temp
-20 -20 -20 -20 -20 -20 -20 -21 -21 -21 -21 -21 -21 -21 -21 -21 -21 -21 -21 -21 -21 -21 -21 -21 -21 -21 -21 -21 -22 -22 -22 -22 -22 -22 -22 -22 -22 -23 -22 -22 -22 -22 -22 -22
-20 -20 -20 -21 -21 -21 -21 -21 -21 -21 -21 -21 -21 -21 -21 -21 -21 -21 -21 -22 -22 -22 -22 -22 -22 -22 -22 -22 -22 -22 -22 -22 -22 -23 -23 -23 -23 -23 -23 -23 -23 -23 -24 -24
-21 -21 -21 -21 -21 -21 -21 -21 -21 -21 -21 -21 -22 -22 -22 -22 -22 -22 -22 -22 -22 -22 -22 -22 -23 -23 -23 -23 -23 -23 -23 -23 -23 -24 -24 -24 -24 -24 -24 -24 -25 -25 -25 -25
-21 -22 -22 -21 -21 -22 -22 -22 -22 -22 -22 -22 -22 -22 -22 -22 -22 -23 -23 -23 -23 -23 -23 -23 -24 -24 -24 -24 -24 -24 -24 -24 -25 -25 -25 -25 -25 -25 -25 -26 -26 -26 -26 -26
-22 -22 -22 -22 -22 -22 -22 -22 -22 -22 -22 -22 -23 -23 -23 -23 -23 -23 -23 -23 -24 -24 -24 -24 -24 -25 -25 -25 -25 -25 -25 -26 -26 -26 -26 -26 -26 -27 -27 -28 -28 -28 -29 -29
-24 -23 -23 -23 -23 -23 -23 -23 -23 -23 -23 -23 -23 -23 -24 -24 -24 -24 -24 -25 -25 -26 -26 -26 -26 -27 -27 -27 -27 -27 -28 -28 -28 -28 -28 -29 -29 -29 -30 -30 -30 -30 -31 -31
-24 -24 -24 -24 -24 -24 -25 -24 -24 -24 -25 -25 -25 -25 -25 -26 -26 -26 -26 -27 -27 -27 -27 -28 -28 -28 -28 -28 -28 -29 -29 -29 -29 -30 -30 -30 -30 -31 -31 -32 -32 -32 -33 -33
-25 -25 -25 -25 -25 -26 -26 -26 -26 -26 -26 -26 -27 -27 -27 -27 -28 -28 -28 -29 -29 -28 -28 -28 -29 -29 -30 -30 -31 -30 -30 -30 -31 -32 -32 -32 -33 -33 -33 -34 -34 -34 -34 -35
-27 -27 -28 -27 -27 -28 -28 -28 -29 -29 -29 -29 -28 -28 -29 -29 -29 -29 -30 -30 -30 -30 -31 -31 -32 -32 -32 -32 -32 -33 -34 -34 -33 -34 -34 -34 -34 -35 -35 -35 -35 -35 -35 -35
-28 -28 -29 -29 -30 -30 -30 -30 -30 -30 -30 -30 -30 -30 -30 -30 -30 -30 -31 -31 -31 -32 -32 -32 -33 -33 -33 -33 -34 -34 -35 -35 -35 -35 -35 -35 -35 -35 -35 -35 -36 -36 -36 -36
-31 -31 -32 -32 -32 -32 -32 -33 -33 -33 -33 -33 -33 -33 -33 -33 -33 -33 -33 -33 -34 -33 -33 -33 -34 -34 -34 -35 -35 -35 -35 -35 -36 -36 -37 -36 -36 -36 -36 -36 -36 -36 -36 -36
-33 -33 -33 -33 -34 -34 -34 -34 -35 -35 -35 -35 -35 -35 -35 -35 -35 -35 -35 -35 -36 -36 -36 -36 -36 -36 -36 -37 -37 -37 -37 -37 -37 -37 -37 -37 -37 -37 -37 -37 -37 -37 -37 -37
-34 -35 -35 -35 -35 -35 -35 -36 -37 -37 -37 -37 -37 -37 -37 -37 -37 -37 -38 -38 -38 -37 -38 -38 -38 -38 -39 -39 -39 -39 -38 -38 -38 -38 -38 -38 -37 -38 -38 -38 -38 -38 -38 -38
-35 -36 -36 -36 -37 -38 -38 -38 -38 -38 -38 -38 -37 -38 -38 -38 -38 -39 -39 -39 -39 -39 -39 -39 -39 -39 -40 -40 -40 -40 -40 -40 -39 -39 -39 -39 -39 -38 -38 -38 -38 -39 -39 -39
-36 -36 -36 -36 -37 -38 -38 -38 -39 -39 -39 -39 -39 -39 -39 -39 -40 -40 -40 -40 -40 -40 -40 -40 -40 -41 -41 -40 -41 -41 -41 -41 -41 -40 -40 -40 -40 -40 -40 -40 -39 -39 -40 -40
-36 -36 -37 -37 -38 -38 -38 -39 -39 -39 -39 -40 -40 -40 -40 -40 -40 -40 -40 -41 -41 -41 -41 -41 -41 -41 -41 -41 -41 -41 -41 -41 -41 -41 -41 -41 -41 -41 -41 -41 -41 -41 -41 -41
-36 -36 -37 -37 -38 -38 -38 -39 -39 -40 -40 -40 -40 -40 -40 -41 -41 -41 -41 -42 -42 -42 -42 -41 -42 -42 -41 -41 -41 -41 -42 -42 -42 -42 -42 -42 -42 -42 -42 -42 -42 -41 -42 -42
-36 -36 -37 -37 -38 -38 -38 -39 -39 -40 -40 -41 -41 -41 -41 -41 -41 -42 -42 -43 -43 -43 -43 -43 -43 -42 -42 -42 -42 -42 -42 -43 -43 -43 -43 -43 -43 -43 -43 -43 -42 -42 -42 -42
-36 -37 -37 -37 -38 -38 -38 -39 -39 -40 -40 -41 -41 -41 -41 -42 -42 -43 -43 -43 -43 -44 -44 -44 -43 -43 -42 -42 -42 -42 -43 -43 -43 -43 -43 -44 -43 -43 -43 -43 -43 -43 -43 -42
-37 -37 -37 -37 -37 -38 -38 -38 -39 -40 -40 -41 -41 -41 -42 -42 -43 -43 -43 -44 -44 -44 -44 -44 -44 -43 -43 -43 -43 -43 -43 -44 -43 -43 -43 -44 -44 -43 -43 -43 -43 -43 -42 -42
-36 -37 -37 -37 -37 -38 -38 -38 -39 -40 -41 -41 -41 -42 -42 -43 -43 -44 -44 -44 -45 -45 -45 -45 -44 -43 -43 -43 -43 -43 -43 -43 -44 -44 -44 -43 -43 -43 -43 -43 -42 -42 -42 -42
-36 -36 -37 -37 -37 -38 -38 -38 -39 -40 -40 -41 -42 -42 -42 -43 -43 -44 -45 -44 -45 -45 -45 -44 -44 -44 -43 -43 -43 -43 -43 -43 -43 -43 -43 -43 -43 -43 -43 -42 -42 -42 -42 -42
-36 -36 -36 -37 -37 -38 -38 -38 -39 -39 -40 -41 -41 -42 -42 -43 -44 -44 -44 -45 -45 -45 -44 -44 -44 -43 -43 -43 -43 -43 -43 -43 -43 -43 -43 -43 -43 -42 -42 -42 -42 -42 -42 -42
-36 -36 -36 -37 -37 -38 -38 -38 -39 -39 -40 -40 -41 -42 -42 -43 -44 -44 -44 -44 -44 -44 -44 -44 -43 -43 -43 -43 -43 -43 -43 -43 -43 -43 -43 -43 -42 -42 -42 -42 -42 -42 -42 -42
-36 -36 -36 -36 -37 -37 -37 -38 -38 -39 -39 -40 -41 -41 -42 -42 -43 -44 -44 -44 -44 -43 -43 -43 -44 -44 -44 -44 -43 -43 -43 -43 -43 -43 -43 -42 -42 -42 -42 -42 -42 -42 -42 -41
-36 -36 -36 -36 -36 -37 -37 -37 -38 -38 -39 -39 -40 -41 -41 -42 -43 -43 -43 -43 -43 -43 -43 -44 -44 -44 -44 -44 -44 -44 -43 -43 -43 -43 -43 -42 -42 -42 -42 -42 -42 -41 -41 -41
-35 -36 -36 -36 -36 -37 -37 -37 -37 -38 -38 -38 -39 -39 -40 -41 -42 -42 -42 -43 -43 -43 -43 -43 -43 -43 -43 -44 -43 -43 -43 -42 -42 -42 -42 -42 -42 -42 -41 -41 -41 -41 -41 -40
Height
5531 5530 5528 5526 5528 5529 5529 5532 5527 5527 5524 5524 5524 5523 5522 5522 5521 5520 5520 5519 5518 5517 5515 5515 5514 5513 5512 5511 5511 5510 5508 5506 5503 5501 5498 5496 5494 5492 5491 5489 5487 5484 5483 5480
5518 5517 5514 5511 5511 5511 5512 5514 5513 5506 5507 5506 5506 5506 5506 5503 5501 5500 5500 5499 5498 5496 5495 5493 5492 5490 5489 5487 5486 5486 5483 5481 5477 5474 5472 5470 5468 5466 5465 5463 5460 5458 5456 5454
5504 5503 5499 5495 5495 5494 5494 5496 5496 5492 5490 5489 5488 5487 5486 5484 5482 5480 5479 5478 5475 5474 5472 5470 5468 5466 5463 5462 5461 5460 5457 5454 5450 5446 5444 5442 5440 5439 5437 5435 5432 5430 5428 5426
5490 5488 5482 5480 5481 5479 5477 5477 5476 5474 5473 5472 5470 5468 5467 5465 5462 5459 5457 5455 5453 5450 5448 5446 5443 5440 5437 5437 5436 5434 5431 5428 5423 5420 5418 5416 5414 5413 5410 5406 5404 5401 5400 5397
5474 5471 5467 5466 5465 5463 5461 5460 5457 5455 5454 5452 5451 5449 5447 5445 5441 5438 5435 5433 5430 5426 5424 5421 5417 5411 5411 5411 5407 5405 5403 5398 5394 5392 5391 5389 5387 5384 5380 5377 5375 5373 5371 5369
5459 5453 5450 5450 5448 5446 5444 5439 5438 5436 5434 5432 5430 5428 5423 5421 5417 5414 5411 5408 5405 5402 5399 5396 5390 5385 5384 5383 5379 5377 5371 5369 5367 5364 5363 5360 5357 5355 5351 5348 5347 5345 5344 5342
5440 5435 5432 5431 5429 5427 5424 5424 5417 5414 5411 5409 5407 5403 5402 5396 5392 5388 5385 5382 5378 5375 5373 5367 5361 5356 5355 5352 5351 5344 5341 5339 5338 5335 5332 5330 5328 5326 5323 5321 5320 5320 5320 5319
5424 5419 5415 5412 5409 5408 5402 5397 5394 5391 5388 5385 5381 5379 5375 5372 5367 5363 5359 5353 5348 5345 5342 5337 5331 5325 5326 5324 5317 5311 5309 5309 5308 5305 5302 5301 5299 5300 5298 5297 5297 5298 5298 5300
5410 5404 5396 5391 5389 5385 5381 5377 5373 5369 5364 5358 5355 5351 5348 5342 5339 5335 5329 5324 5319 5314 5311 5307 5300 5292 5292 5292 5286 5283 5280 5278 5278 5277 5277 5276 5276 5276 5276 5275 5275 5277 5277 5279
5392 5387 5381 5373 5369 5364 5359 5354 5349 5344 5339 5332 5328 5324 5319 5314 5308 5302 5297 5290 5284 5279 5278 5276 5269 5264 5260 5261 5255 5253 5254 5255 5252 5249 5249 5250 5250 5251 5252 5254 5254 5254 5255 5257
5375 5370 5365 5355 5349 5344 5340 5332 5326 5320 5313 5306 5300 5297 5289 5285 5277 5271 5264 5259 5251 5246 5242 5240 5236 5232 5228 5225 5220 5220 5221 5224 5225 5223 5222 5222 5223 5224 5225 5228 5227 5230 5232 5232
5362 5354 5347 5339 5333 5326 5322 5314 5305 5299 5295 5286 5277 5272 5265 5259 5251 5242 5235 5229 5222 5216 5210 5206 5201 5197 5194 5191 5187 5188 5191 5192 5192 5192 5193 5194 5195 5197 5198 5201 5202 5203 5206 5208
5348 5341 5331 5323 5314 5307 5302 5295 5288 5280 5274 5269 5261 5254 5246 5240 5231 5223 5214 5207 5200 5194 5187 5180 5174 5170 5166 5162 5161 5162 5163 5163 5164 5163 5165 5166 5168 5170 5173 5174 5174 5177 5180 5182
5337 5330 5321 5309 5302 5294 5288 5282 5276 5268 5260 5252 5245 5238 5231 5223 5216 5207 5199 5192 5185 5178 5171 5163 5157 5152 5146 5143 5141 5141 5140 5140 5140 5141 5141 5142 5142 5144 5146 5149 5151 5153 5153 5155
5331 5321 5311 5302 5292 5284 5276 5270 5263 5256 5249 5241 5232 5225 5217 5210 5202 5193 5184 5177 5170 5163 5156 5150 5144 5138 5131 5128 5125 5124 5123 5123 5122 5121 5120 5121 5121 5122 5122 5124 5127 5130 5132 5133
5327 5317 5306 5295 5285 5276 5267 5260 5252 5245 5238 5230 5223 5215 5206 5198 5190 5181 5173 5165 5158 5152 5144 5138 5132 5126 5120 5115 5111 5110 5109 5108 5107 5106 5105 5103 5103 5103 5104 5106 5108 5110 5113 5115
5325 5316 5306 5294 5282 5270 5260 5251 5242 5235 5228 5220 5213 5205 5197 5189 5180 5171 5162 5153 5145 5138 5131 5126 5121 5115 5110 5105 5102 5099 5098 5096 5094 5093 5092 5092 5091 5091 5090 5091 5093 5096 5098 5100
5320 5309 5298 5288 5278 5268 5257 5246 5236 5227 5219 5211 5203 5195 5187 5179 5171 5161 5152 5143 5134 5126 5117 5114 5108 5104 5100 5096 5092 5089 5088 5087 5085 5083 5082 5081 5080 5080 5080 5081 5082 5085 5087 5089
5319 5308 5296 5285 5274 5263 5253 5242 5232 5221 5211 5202 5194 5186 5177 5169 5160 5150 5140 5130 5122 5116 5108 5102 5098 5095 5091 5088 5084 5081 5080 5078 5077 5075 5074 5073 5073 5073 5073 5074 5076 5078 5080 5083
5319 5308 5297 5286 5274 5262 5251 5238 5226 5215 5204 5194 5185 5176 5167 5158 5149 5138 5128 5118 5109 5104 5099 5093 5090 5088 5085 5081 5077 5074 5073 5071 5070 5070 5069 5068 5068 5068 5069 5070 5071 5074 5076 5079
5321 5310 5298 5286 5274 5262 5249 5236 5224 5212 5200 5188 5179 5170 5160 5150 5139 5127 5116 5109 5100 5095 5090 5086 5084 5082 5079 5075 5072 5070 5068 5067 5066 5066 5065 5064 5065 5065 5066 5067 5069 5071 5073 5075
5323 5311 5299 5287 5275 5262 5249 5235 5221 5209 5196 5184 5174 5165 5155 5143 5131 5118 5104 5098 5092 5088 5085 5082 5081 5078 5074 5071 5069 5067 5065 5064 5063 5063 5063 5062 5063 5064 5065 5066 5067 5069 5071 5074
5324 5313 5301 5289 5276 5262 5248 5235 5221 5208 5194 5181 5172 5161 5150 5135 5121 5112 5103 5093 5088 5085 5083 5081 5079 5076 5073 5070 5068 5066 5065 5063 5063 5062 5062 5061 5062 5063 5064 5065 5066 5068 5071 5073
5327 5316 5304 5291 5277 5265 5252 5238 5223 5207 5194 5181 5168 5157 5146 5134 5121 5109 5100 5093 5090 5087 5085 5083 5080 5077 5075 5072 5070 5068 5066 5064 5063 5062 5061 5061 5062 5062 5063 5065 5067 5068 5070 5073
5329 5318 5307 5295 5283 5270 5256 5242 5228 5213 5199 5183 5170 5158 5146 5135 5122 5112 5104 5098 5094 5091 5088 5085 5083 5080 5077 5074 5072 5069 5067 5065 5063 5062 5062 5062 5062 5063 5064 5065 5067 5069 5071 5073
5331 5320 5310 5298 5287 5274 5261 5247 5233 5220 5204 5190 5174 5162 5152 5138 5125 5117 5110 5103 5099 5095 5092 5089 5086 5083 5079 5076 5073 5071 5068 5066 5065 5064 5063 5063 5063 5064 5065 5067 5068 5070 5073 5075
5332 5322 5312 5302 5289 5278 5266 5253 5239 5225 5212 5197 5182 5169 5154 5143 5134 5124 5116 5109 5105 5100 5097 5093 5090 5086 5084 5080 5076 5074 5071 5069 5068 5066 5065 5065 5065 5066 5066 5068 5070 5072 5075 5078
Wind_Speed
41 39 40 42 45 49 49 47 51 54 55 52 53 55 57 59 61 62 62 64 66 68 69 70 71 72 73 73 73 74 75 77 78 80 82 83 84 84 86 87 88 89 90 91
49 51 48 48 47 48 53 56 57 62 62 61 62 63 64 66 68 69 70 70 71 73 75 76 77 78 79 80 81 82 83 84 85 85 85 86 88 89 91 91 92 92 92 93
46 47 50 53 54 54 54 61 62 64 68 69 68 68 70 71 73 75 76 76 78 79 80 82 83 84 85 86 86 87 87 88 90 90 91 91 92 92 94 95 95 94 96 97
49 49 51 54 54 55 58 60 62 65 66 69 73 75 74 74 76 77 78 79 80 82 83 84 85 86 88 89 90 90 90 90 91 92 93 94 96 97 97 97 98 99 99 99
54 56 56 57 57 58 58 59 60 62 63 66 69 72 74 75 78 80 81 85 86 86 87 88 89 91 91 91 93 93 93 93 94 96 97 98 98 98 98 99 98 97 96 95
52 56 58 59 61 63 64 67 67 69 70 72 73 75 78 80 82 83 84 84 84 85 87 88 91 93 93 92 93 93 94 96 97 98 99 98 97 96 95 93 92 89 85 82
57 59 62 62 64 67 67 70 71 73 73 74 76 78 79 80 81 83 84 85 87 88 89 91 92 95 95 97 97 99 99 100 100 98 96 93 91 88 85 82 79 75 72 68
60 61 63 65 66 67 70 71 74 75 76 78 80 80 82 84 86 87 88 90 92 95 96 98 99 100 99 99 98 101 101 97 93 88 84 81 78 74 71 70 68 65 64 62
57 58 60 64 65 66 68 71 72 75 78 81 84 85 87 88 89 90 92 94 95 96 95 94 93 93 94 93 91 87 85 84 82 79 76 74 72 70 68 67 67 66 66 65
55 57 58 62 64 67 70 72 75 77 80 82 85 85 87 89 90 92 93 94 95 95 95 94 94 94 94 91 91 89 86 84 83 82 81 79 77 76 74 73 72 72 71 70
51 55 56 61 64 66 66 69 72 74 77 79 82 83 85 87 88 90 91 91 93 93 94 94 94 93 92 92 91 90 88 86 84 83 82 81 80 79 78 76 76 75 73 73
46 49 52 56 57 59 60 62 65 66 66 68 70 70 71 71 73 74 75 76 78 80 82 83 84 86 86 84 84 83 81 80 80 81 81 82 82 81 81 80 79 77 76 75
39 41 44 46 49 50 49 48 48 49 50 50 51 52 52 51 51 52 52 53 54 55 56 57 58 60 62 66 71 72 72 71 71 71 72 73 74 75 75 76 77 77 77 76
37 37 38 42 40 40 41 42 42 44 45 46 46 47 47 47 47 48 48 48 47 45 45 46 47 47 48 49 50 51 55 58 62 63 63 63 65 66 67 67 68 68 70 70
37 38 39 38 38 38 39 40 39 40 40 40 42 42 43 43 43 43 45 45 44 44 44 43 42 40 42 42 42 42 42 43 45 47 49 52 53 54 56 56 56 57 57 59
39 39 39 38 38 37 37 37 38 37 37 37 37 37 38 39 40 41 43 43 43 41 41 40 39 38 37 37 36 36 36 36 38 39 41 43 45 45 46 46 45 45 45 45
40 40 39 38 38 38 38 38 37 37 36 36 36 36 37 37 39 40 41 42 42 41 40 37 36 36 35 33 30 30 30 30 32 33 34 33 34 35 37 37 35 35 35 35
46 47 47 45 42 40 38 38 37 36 36 36 36 37 38 39 40 42 43 42 40 39 39 35 34 32 31 29 28 25 23 24 25 26 26 26 26 27 27 28 27 25 24 25
48 49 49 50 48 46 45 42 39 37 35 35 35 36 38 40 42 45 46 44 40 35 33 31 30 28 28 26 23 20 20 21 21 20 19 18 19 19 19 18 17 16 15 16
49 50 51 51 51 50 49 48 46 42 39 37 35 35 37 41 44 46 46 43 40 32 27 25 25 23 24 22 19 18 17 18 19 17 14 11 11 11 11 10 10 9 9 10
51 51 52 53 53 54 53 53 50 47 42 39 37 36 39 43 46 47 45 38 34 29 24 23 21 20 21 18 18 18 15 12 11 10 10 8 7 6 6 6 5 6 7 8
53 54 54 54 55 56 57 57 56 53 47 42 40 38 41 46 46 44 43 36 28 22 18 17 16 19 18 17 13 11 10 9 8 6 5 5 5 3 4 4 5 6 8 8
54 56 57 58 58 58 60 60 60 59 55 47 41 41 45 48 48 40 32 28 21 17 14 13 16 16 15 14 13 12 11 9 8 6 5 5 4 2 3 5 6 7 8 9
51 54 58 60 60 60 60 61 62 63 61 53 47 46 49 48 44 37 31 24 17 13 12 14 16 17 16 15 14 13 11 10 8 6 3 2 1 2 4 6 7 7 8 8
50 53 55 58 61 62 62 63 63 64 63 61 51 48 51 49 45 36 29 22 18 16 17 19 19 20 20 19 17 15 12 10 8 6 5 3 3 3 4 6 7 8 10 12
47 51 54 56 59 62 65 66 65 65 67 65 61 51 50 52 47 39 31 27 23 20 20 21 20 19 17 16 15 12 11 10 9 8 6 5 4 5 5 6 9 11 13 15
46 48 51 53 57 60 63 66 68 67 67 68 68 62 53 53 50 43 37 31 27 24 23 21 19 19 19 16 14 15 14 12 10 8 6 5 4 4 7 10 12 14 16 17
Wind_Direction
263 264 265 263 265 266 265 269 270 269 267 267 266 265 266 268 268 268 268 269 269 271 273 274 275 274 274 273 273 274 274 274 274 274 274 274 273 272 273 275 276 277 277 277
272 266 262 258 258 262 265 263 264 263 263 266 267 267 267 268 269 269 270 271 271 272 274 275 275 276 275 275 276 276 277 277 276 276 276 276 275 276 276 276 276 277 277 277
279 276 274 270 266 261 261 262 261 261 263 264 263 265 265 266 267 268 269 270 272 273 275 275 276 275 275 276 276 276 276 277 277 277 276 276 276 276 276 277 277 277 277 277
280 278 275 273 272 270 268 265 263 264 265 265 263 264 263 264 265 266 267 269 273 275 275 274 274 274 274 275 275 276 276 276 276 275 276 276 276 276 277 277 278 278 279 280
275 273 273 272 272 273 272 271 270 269 269 268 267 266 265 265 266 266 268 271 272 273 273 273 273 273 274 275 275 275 275 275 275 276 276 276 277 278 278 278 279 279 279 279
275 275 274 273 274 273 273 272 272 272 271 270 269 268 269 269 269 270 271 271 270 271 271 272 272 273 274 274 274 275 275 275 275 276 276 276 277 277 277 277 277 277 277 277
275 274 274 274 273 273 272 272 273 273 272 271 270 270 269 270 271 271 271 271 271 271 272 272 273 274 274 274 274 274 274 274 275 275 276 276 276 276 275 275 276 275 274 274
272 272 270 272 273 272 273 272 273 272 271 271 271 271 271 271 272 272 272 273 273 274 274 274 274 274 274 275 275 276 276 276 275 275 274 274 273 273 273 273 273 272 271 270
274 274 275 274 274 273 273 273 274 274 275 275 275 275 275 274 274 274 274 274 274 274 274 274 275 275 275 275 274 273 273 274 273 271 271 271 272 272 271 271 271 270 270 270
278 276 278 278 278 278 278 278 278 278 278 279 278 279 279 279 279 278 278 278 277 276 275 275 275 274 274 272 271 271 270 270 271 272 272 271 270 270 269 269 268 268 269 270
284 284 285 286 285 284 285 285 285 284 284 284 283 283 283 283 282 282 281 280 280 279 278 277 275 274 274 273 272 271 270 269 267 267 267 268 267 268 268 268 267 267 268 268
291 290 288 287 286 286 286 285 286 286 285 287 288 288 288 288 287 286 284 283 282 281 280 279 277 276 274 273 273 272 272 271 269 268 267 266 266 266 266 266 266 268 268 268
310 308 306 302 299 297 296 296 296 296 296 295 294 295 296 296 296 295 294 293 291 291 290 288 286 283 280 275 272 271 270 271 271 270 270 268 268 267 266 267 267 267 267 267
327 323 321 317 311 304 301 300 301 302 303 303 302 302 302 301 301 301 300 299 300 300 298 296 294 292 288 284 280 276 273 271 270 270 271 271 270 269 268 267 266 266 267 267
342 338 334 329 325 318 310 308 309 309 310 309 310 310 309 309 308 306 305 304 304 303 302 301 302 300 295 290 284 281 278 276 275 275 273 271 269 269 269 268 267 265 263 264
354 350 346 342 337 330 322 315 312 312 313 314 314 315 316 317 316 312 310 309 306 303 301 301 302 303 299 294 289 284 281 279 276 274 273 274 274 274 272 270 268 267 265 263
2 0 358 353 346 340 336 331 323 317 315 315 316 318 321 322 321 320 317 313 310 308 304 302 300 301 303 301 295 286 283 284 283 281 279 276 274 273 273 272 270 266 263 262
6 5 3 2 358 353 348 342 337 329 321 316 316 317 319 322 324 323 321 318 314 310 305 303 299 301 304 303 301 299 292 287 286 285 283 279 276 274 271 270 270 266 262 259
9 8 6 6 4 359 357 353 348 343 336 328 322 318 319 323 325 325 324 321 317 312 307 304 300 301 303 306 304 299 296 294 292 288 285 283 280 278 274 270 266 261 253 249
11 10 9 8 7 5 2 359 357 351 345 341 336 330 327 327 328 327 325 324 320 319 315 305 302 304 312 315 306 291 286 292 297 298 295 289 284 278 272 262 253 242 235 235
13 11 10 9 9 8 6 4 2 359 353 348 345 339 335 333 332 330 327 328 322 323 320 313 313 317 318 313 311 313 310 306 305 303 299 293 282 275 264 254 237 221 210 209
15 15 13 11 10 10 10 8 6 3 0 356 351 345 343 340 339 337 330 331 328 328 325 320 323 330 330 334 331 323 321 315 308 304 292 289 290 273 242 219 201 191 189 190
16 16 16 14 13 12 12 11 9 8 7 1 356 354 352 349 348 346 343 340 339 340 342 341 344 346 348 350 347 344 343 339 336 338 333 319 302 275 216 193 182 175 171 172
15 15 17 17 15 14 13 13 12 11 10 6 3 1 1 1 355 357 360 2 5 6 8 4 5 8 10 9 8 6 7 6 5 2 347 311 270 174 172 167 162 156 157 161
13 14 15 17 17 17 16 16 16 15 13 13 9 8 7 6 9 11 12 16 23 25 25 24 26 27 28 27 26 23 19 20 23 28 37 55 77 113 131 139 148 158 156 155
11 12 14 15 16 17 18 18 18 18 19 17 16 14 13 16 16 18 23 26 26 29 29 31 33 31 31 31 30 30 35 39 39 42 53 71 95 113 129 140 149 150 149 146
8 10 12 13 15 16 17 18 19 19 20 20 20 20 19 20 20 22 25 29 28 27 26 27 25 24 26 25 17 18 18 19 21 25 36 59 87 118 131 138 142 141 140 142